Location: Eisingen in Unterfranken
(49.7591°N, 9.8347°E)
Time: 20:56:51
(UTC+01:00)

ISS - Visible Passes

Search period start: 04 December 2023 00:00
Search period end: 14 December 2023 00:00
Orbit: 415 x 417 km, 51.6° (Epoch: 04 December)

Date Brightness Start Highest point End Pass type
(mag) Time Alt. Az. Time Alt. Az. Time Alt. Az.
04 Dec -2.5 17:28:29 10° WNW 17:31:42 42° SSW 17:34:53 10° SE visible
05 Dec -0.7 18:17:36 10° WSW 18:19:26 14° SW 18:21:16 10° S visible
06 Dec -1.0 17:28:29 10° W 17:31:06 21° SW 17:33:42 10° SSE visible
